Regional Weather Roundup
Issued by NWS Goodland, KS

Home | Current Version | Previous Version | Text Only | Print | Product List | Glossary Off
Versions: 1 2 3 4 5 6 7 8 9 10 11 12 13 14 15 16 17 18 19 20 21 22 23 24 25 26 27 28 29 30 31 32 33 34 35 36 37 38 39 40 41 42 43 44 45 46 47 48 49 50

000
ASUS43 KGLD 271108
RWRGLD

GOODLAND FORECAST AREA HOURLY WEATHER ROUNDUP
NATIONAL WEATHER SERVICE GOODLAND KS
500 AM MDT SAT AUG 27 2016

...OFFICIAL OBSERVATIONS...

CITY           SKY/WX    TMP DP  RH WIND       PRES   REMARKS
GOODLAND KS    FOG       53  53 100 S5        30.05S VSB 1/2
HILL CITY KS   CLEAR     55  53  93 CALM      30.04S
IMPERIAL NEB   FOG       49  48  97 N9        30.08R VSB 3/4
MCCOOK NEB     PTCLDY    50  50 100 SW3       30.06R FOG
AKRON CO       FOG       48  47  96 CALM      30.08S VSB 3/4
BURLINGTON CO  FOG       53  52  96 S6        30.07S VSB 1/4
LIMON CO       CLEAR     45  45 100 N5        30.11F FOG
$$

...UNOFFICIAL OBSERVATIONS...

CITY           SKY/WX    TMP DP  RH WIND       PRES   REMARKS
LENORA KS        N/A     55  32  41 MISG        N/A
SHARON SPRINGS   N/A     54  53  95 CALM        N/A
TRENTON NEB      N/A     52  32  46 MISG        N/A
KIT CARSON CO    N/A     51  47  85 CALM        N/A
YUMA CO          N/A     48  47  96 CALM        N/A
$$




USA.gov is the U.S. government's official web portal to all federal, state and local government web resources and services.